Weather Roundup
Issued by NWS Chicago, IL

Home | Current Version | Previous Version | Text Only | Print | Product List | Glossary Off
Versions: 1 2 3 4 5 6 7 8 9 10 11 12 13 14 15 16 17 18 19 20 21 22 23 24 25 26 27 28 29 30 31 32 33 34 35 36 37 38 39 40 41 42 43 44 45 46 47 48 49 50

000
NZUS59 KLOT 280521
HRRLOT

CHICAGO AREA WEATHER ROUNDUP
NATIONAL WEATHER SERVICE CHICAGO/ROMEOVILLE IL
1200 AM CDT THU MAY 28 2015

NOTE: "FAIR" INDICATES FEW OR NO CLOUDS BELOW 12,000 FEET WITH NO
SIGNIFICANT WEATHER AND/OR OBSTRUCTIONS TO VISIBILITY.

* THESE STATIONS ARE NOT UNDER NWS QUALITY CONTROL. THEY ALSO MAY NOT
  REPORT WEATHER SUCH AS PRECIPITATION OR FOG.

ILZ005-006-012>014-019>023-280600-
NORTHEAST ILLINOIS

CITY           SKY/WX    TMP DP  RH WIND       PRES   REMARKS
OHARE          CLEAR     61  55  81 S6        30.13R
MIDWAY         CLEAR     64  55  72 S3        30.13R
AURORA         CLEAR     58  54  86 CALM      30.14R
LANSING*       CLEAR     58  55  88 CALM      30.14S
JOLIET*        CLEAR     59  57  94 CALM      30.14R
WAUKEGAN       CLEAR     57  55  93 S3        30.13R
DUPAGE AIRPORT CLEAR     58  55  90 CALM      30.13R
WHEELING       CLEAR     58  54  86 CALM      30.15R
KANKAKEE*      CLEAR     58  54  86 CALM      30.15R
MORRIS*        CLEAR     60  56  84 SW3       30.12R
LEWIS AIRPORT* CLEAR     60  54  79 CALM      30.14R
NORTHERLY IS     N/A     59  54  83 S1          N/A
$$

WIZ051-052-058>065-066-070>072-280600-
SOUTHEAST WISCONSIN

CITY           SKY/WX    TMP DP  RH WIND       PRES   REMARKS
MILWAUKEE      PTCLDY    59  54  83 VRB3      30.11R
KENOSHA*       CLEAR     59  56  89 S5        30.12R
RACINE*        CLEAR     60  53  77 S6        30.13R
BURLINGTON     CLEAR     56  55  97 SW6       30.13R
WAUKESHA       CLEAR     61  54  77 SW6       30.13R
WEST BEND      MOCLDY    61  55  82 SW3       30.10S
$$

INZ001>003-010>013-019-020-280600-
NORTHWEST INDIANA

CITY           SKY/WX    TMP DP  RH WIND       PRES   REMARKS
GARY*          CLEAR     57  56  98 CALM      30.14S
MICHIGAN CITY* NOT AVBL
RENSSELAER*    NOT AVBL
VALPARAISO     CLEAR     58  54  86 CALM      30.15R
$$

LMZ740>746-280600-
SOUTHERN LAKE MICHIGAN

STATION/POSITION TIME  SKY/WX   TEMP WIND        PRES    VSBY
                                AIR  DIR/SP/G
                 (UTC)          (F)  (DEG/KT/KT) (MB)    (MI)
HARRISON CRIB    0500            61  180/ 10/ 11   N/A
BURNHAM HARBOR   0500            59   CALM  /  4   N/A
CALUMET HARBOR   0412            62  210/  1/  2   N/A
BURNS HARBOR     0400            62  180/  3/  4 1021.0R
MICHIGAN CITY    0500            61  100/  3/  4   N/A
$$

ABBREVIATIONS USED IN REMARKS
   TC - TEMPERATURE IN CELSIUS
  WCI - WIND CHILL INDEX
   HX - HEAT INDEX
  VSB - VISIBILITY
$$



USA.gov is the U.S. government's official web portal to all federal, state and local government web resources and services.